Date String (YYYY-MM-DD hh:mm:ss) UTC,Instrument flags,Ambient pressure (hPa),Sample flow (lpm),Bypass flow (lpm),Sample temperature (°C),Ambient temperature (°C),ASC tube jacket temperature (°C),LED temperature (°C),Box temperature (°C),Sample RH (%),Span deviation,Mass concentration (μg/m³),Mass concentration (μg/m³),Mass concentration (μg/m³)
DateTimeUTC,F1_M11,P_M11,Q1_M11,Q2_M11,T1_M11,T2_M11,T3_M11,T4_M11,T5_M11,U1_M11,ZSPAN_M11,X0_M11,X2_M11,X1_M11
2021-09-02 16:00:00,,0826.7,5.00,0.00,29.6,28.8,00.0,38.7,31.4,31.7,0001.4,0019.51,0013.07,0012.26
2021-09-02 16:01:00,,0826.7,4.99,0.00,29.6,28.8,00.0,38.7,31.4,32.0,0001.7,0019.89,0013.05,0012.25
2021-09-02 16:02:00,,0826.7,5.01,0.00,29.7,28.8,00.0,38.7,31.4,31.5,0001.8,0020.21,0013.12,0012.26
2021-09-02 16:03:00,,0826.7,5.00,0.00,29.7,28.9,00.0,38.7,31.4,31.3,0001.8,0019.70,0013.12,0012.28
2021-09-02 16:04:00,,0826.7,5.01,0.00,29.7,28.9,00.0,38.7,31.4,31.3,0001.8,0019.74,0013.15,0012.31
2021-09-02 16:05:00,,0826.7,5.00,0.00,29.6,27.8,00.0,38.7,31.1,31.6,0002.1,0019.88,0013.19,0012.34
2021-09-02 16:06:00,,0826.7,4.99,0.00,29.5,26.1,00.0,38.7,30.7,32.1,0002.3,0019.97,0013.25,0012.39
2021-09-02 16:07:00,,0826.7,5.00,0.00,29.4,25.7,00.0,38.7,30.6,31.9,0002.1,0019.21,0013.25,0012.41
2021-09-02 16:08:00,,0826.7,5.01,0.00,29.3,26.0,00.0,38.6,30.6,32.0,0002.0,0018.97,0013.32,0012.44
2021-09-02 16:09:00,,0826.7,5.00,0.00,29.2,26.4,00.0,38.5,30.7,32.2,0002.0,0019.19,0013.38,0012.48
2021-09-02 16:10:00,,0826.7,5.01,0.00,29.2,26.9,00.0,38.5,30.8,32.3,0001.9,0019.43,0013.44,0012.53
2021-09-02 16:11:00,,0826.7,4.99,0.00,29.2,27.2,00.0,38.5,30.9,32.2,0001.7,0019.23,0013.44,0012.53
2021-09-02 16:12:00,,0826.7,5.01,0.00,29.2,27.5,00.0,38.5,30.9,32.3,0001.7,0018.45,0013.44,0012.54
2021-09-02 16:13:00,,0826.7,4.99,0.00,29.2,27.7,00.0,38.5,31.0,32.3,0001.5,0017.97,0013.41,0012.58
2021-09-02 16:14:00,,0826.7,5.01,0.00,29.3,27.9,00.0,38.5,31.0,32.0,0001.5,0017.88,0013.41,0012.59
2021-09-02 16:15:00,,0826.7,4.98,0.00,29.3,28.0,00.0,38.5,31.1,32.0,0001.5,0017.93,0013.46,0012.61
2021-09-02 16:16:00,,0826.7,5.00,0.00,29.3,28.2,00.0,38.5,31.1,31.9,0001.7,0017.84,0013.45,0012.62
2021-09-02 16:17:00,,0826.7,5.00,0.00,29.3,28.2,00.0,38.5,31.1,31.8,0001.6,0017.70,0013.46,0012.63
2021-09-02 16:18:00,,0826.7,5.00,0.00,29.4,28.3,00.0,38.5,31.2,32.2,0001.4,0017.71,0013.47,0012.65
2021-09-02 16:19:00,,0826.7,5.01,0.00,29.4,28.4,00.0,38.5,31.2,31.9,0001.5,0017.72,0013.47,0012.64
2021-09-02 16:20:00,,0826.7,4.99,0.00,29.4,28.5,00.0,38.5,31.2,32.1,0001.8,0017.45,0013.46,0012.64
2021-09-02 16:21:00,,0826.7,5.00,0.00,29.4,28.5,00.0,38.5,31.2,32.6,0001.8,0017.34,0013.42,0012.61
2021-09-02 16:22:00,,0826.7,4.99,0.00,29.5,28.6,00.0,38.5,31.3,32.3,0001.8,0017.56,0013.42,0012.62
2021-09-02 16:23:00,,0826.7,5.01,0.00,29.5,28.7,00.0,38.5,31.3,32.3,0001.7,0017.63,0013.46,0012.66
2021-09-02 16:24:00,,0826.7,5.01,0.00,29.5,28.7,00.0,38.6,31.3,32.2,0001.7,0017.99,0013.51,0012.66
2021-09-02 16:25:00,,0826.7,5.00,0.00,29.6,28.7,00.0,38.6,31.4,31.9,0001.9,0018.14,0013.57,0012.68
2021-09-02 16:26:00,,0826.7,5.00,0.00,29.6,28.8,00.0,38.6,31.4,31.8,0002.1,0018.14,0013.57,0012.67
2021-09-02 16:27:00,,0826.7,4.99,0.00,29.6,28.8,00.0,38.6,31.4,31.9,0001.8,0018.33,0013.61,0012.67
2021-09-02 16:28:00,,0826.7,5.01,0.00,29.6,28.9,00.0,38.6,31.4,32.2,0001.7,0018.42,0013.60,0012.66
2021-09-02 16:29:00,,0826.7,4.99,0.00,29.7,28.9,00.0,38.7,31.5,31.8,0002.1,0018.42,0013.61,0012.65
2021-09-02 16:30:00,,0826.7,5.00,0.00,29.7,28.9,00.0,38.7,31.5,31.8,0002.0,0018.34,0013.58,0012.65
2021-09-02 16:31:00,,0826.7,5.01,0.00,29.7,29.0,00.0,38.7,31.5,31.8,0001.7,0018.22,0013.56,0012.68
2021-09-02 16:32:00,,0826.7,5.00,0.00,29.7,28.3,00.0,38.7,31.3,31.9,0001.5,0018.09,0013.56,0012.70
2021-09-02 16:33:00,,0826.7,4.99,0.00,29.6,26.9,00.0,38.7,31.0,31.9,0001.7,0017.61,0013.58,0012.71
2021-09-02 16:34:00,,0826.7,5.01,0.00,29.5,26.7,00.0,38.7,30.9,32.1,0001.6,0017.56,0013.58,0012.71
2021-09-02 16:35:00,,0826.7,4.99,0.00,29.5,27.1,00.0,38.7,31.0,32.4,0001.7,0017.24,0013.55,0012.71
2021-09-02 16:36:00,,0826.7,5.01,0.00,29.5,27.4,00.0,38.6,31.1,32.1,0001.5,0017.96,0013.53,0012.72
2021-09-02 16:37:00,,0826.7,5.00,0.00,29.5,27.7,00.0,38.6,31.2,32.2,0001.4,0018.12,0013.52,0012.73
2021-09-02 16:38:00,,0826.7,5.00,0.00,29.5,27.9,00.0,38.6,31.2,32.6,0001.5,0018.09,0013.55,0012.76
2021-09-02 16:39:00,,0826.7,5.01,0.00,29.5,28.1,00.0,38.6,31.2,32.7,0001.7,0017.98,0013.59,0012.78
2021-09-02 16:40:00,,0826.7,5.01,0.00,29.5,28.3,00.0,38.6,31.3,32.5,0001.6,0017.99,0013.58,0012.80
2021-09-02 16:41:00,,0826.7,5.00,0.00,29.5,28.4,00.0,38.6,31.3,32.5,0001.6,0018.16,0013.59,0012.84
2021-09-02 16:42:00,,0826.7,5.00,0.00,29.6,28.5,00.0,38.6,31.3,32.6,0001.7,0018.23,0013.61,0012.85
2021-09-02 16:43:00,,0826.7,5.00,0.00,29.6,28.6,00.0,38.6,31.4,32.3,0001.7,0018.75,0013.66,0012.87
2021-09-02 16:44:00,,0826.7,5.01,0.00,29.6,28.7,00.0,38.6,31.4,32.6,0001.5,0018.98,0013.69,0012.90
2021-09-02 16:45:00,,0826.7,5.02,0.00,29.6,28.7,00.0,38.7,31.5,32.1,0001.6,0019.03,0013.71,0012.91
2021-09-02 16:46:00,,0826.6,4.99,0.00,29.7,28.8,00.0,38.7,31.5,31.7,0001.7,0019.05,0013.72,0012.95
2021-09-02 16:47:00,,0826.6,4.98,0.00,29.7,28.8,00.0,38.7,31.5,32.0,0001.8,0018.19,0013.72,0012.96
2021-09-02 16:48:00,,0826.7,5.01,0.00,29.7,28.9,00.0,38.7,31.6,32.1,0001.7,0018.22,0013.73,0012.96
2021-09-02 16:49:00,,0826.6,5.00,0.00,29.7,28.3,00.0,38.7,31.4,32.1,0001.8,0018.45,0013.71,0012.95
2021-09-02 16:50:00,,0826.6,4.99,0.00,29.6,26.6,00.0,38.7,31.0,32.5,0001.9,0018.78,0013.70,0012.96
2021-09-02 16:51:00,,0826.6,4.99,0.00,29.5,25.8,00.0,38.7,30.7,32.8,0002.2,0019.55,0013.74,0012.97
2021-09-02 16:52:00,,0826.6,5.02,0.00,29.4,26.0,00.0,38.6,30.8,33.1,0002.5,0019.87,0013.76,0012.97
2021-09-02 16:53:00,,0826.6,4.99,0.00,29.3,26.4,00.0,38.6,30.8,33.2,0002.3,0020.00,0013.82,0012.98
2021-09-02 16:54:00,,0826.6,5.00,0.00,29.3,26.9,00.0,38.6,30.9,33.2,0002.4,0019.94,0013.83,0012.98
2021-09-02 16:55:00,,0826.6,5.00,0.00,29.3,27.3,00.0,38.5,31.0,33.3,0002.3,0019.78,0013.81,0012.98
2021-09-02 16:56:00,,0826.7,4.99,0.00,29.3,27.6,00.0,38.5,31.0,33.2,0002.2,0020.09,0013.81,0012.99
2021-09-02 16:57:00,,0826.7,5.01,0.00,29.3,27.8,00.0,38.5,31.1,33.4,0002.1,0020.15,0013.79,0012.95
2021-09-02 16:58:00,,0826.6,5.00,0.00,29.4,28.0,00.0,38.5,31.2,33.0,0002.0,0020.12,0013.77,0012.92
2021-09-02 16:59:00,,0826.7,4.99,0.00,29.4,28.2,00.0,38.5,31.2,32.2,0001.8,0019.91,0013.76,0012.91
